This demonstration page uses our WeatherBlox Daily Observations layout. Learn more.

Left ArrowRight Arrow

44.8408, -93.29828

Hourly Observations for November 14, 2016

Temp ( °F °C ) Dew Point ( °F °C ) Humidity (%) Winds ( mph kmh ) Pressure ( in mb ) Visibility ( mi km ) Precip ( " mm )
12:53 am 00:53 Mostly Clear 48 8.9 38 3.3 68 68 NW 5 7 29.86 1011 10 16 0.00 0.00
1:53 am 01:53 Clear 47 8.3 38 3.3 71 71 W 3 6 29.86 1011 10 16 0.00 0.00
2:53 am 02:53 Mostly Clear 44 6.7 37 2.8 76 76 WNW 3 6 29.87 1012 10 16 0.00 0.00
3:53 am 03:53 Mostly Clear 43 6.1 38 3.3 82 82 WNW 6 9 29.88 1012 10 16 0.00 0.00
4:53 am 04:53 Mostly Clear 45 7.2 38 3.3 77 77 NW 7 11 29.88 1012 10 16 0.00 0.00
5:53 am 05:53 Clear 42 5.6 37 2.8 82 82 NW 7 11 29.89 1012 10 16 0.00 0.00
6:53 am 06:53 Clear 41 5 37 2.8 86 86 WNW 6 9 29.91 1013 10 16 0.00 0.00
7:53 am 07:53 Mostly Cloudy 43 6.1 38 3.3 82 82 SW 3 6 29.91 1013 10 16 0.00 0.00
8:53 am 08:53 Cloudy 44 6.7 39 3.9 83 83 WNW 6 9 29.94 1014 10 16 0.00 0.00
9:53 am 09:53 Cloudy 46 7.8 40 4.4 79 79 NW 7 11 29.94 1014 10 16 0.00 0.00
10:53 am 10:53 Cloudy 47 8.3 40 4.4 77 77 NNW 9 15 29.95 1014 10 16 0.00 0.00
11:53 am 11:53 Cloudy 48 8.9 41 5 77 77 NNW 8 13 29.95 1014 10 16 0.00 0.00
12:53 pm 12:53 Cloudy 50 10 41 5 71 71 NNW 9 15 29.94 1014 10 16 0.00 0.00
1:53 pm 13:53 Cloudy 50 10 41 5 71 71 NNW 8 13 29.94 1014 10 16 0.00 0.00
2:53 pm 14:53 Cloudy 50 10 41 5 71 71 NNW 8 13 29.94 1014 10 16 0.00 0.00
3:53 pm 15:53 Mostly Cloudy 50 10 42 5.6 74 74 NW 5 7 29.94 1014 10 16 0.00 0.00
4:53 pm 16:53 Mostly Cloudy 48 8.9 40 4.4 74 74 NNW 5 7 29.95 1014 10 16 0.00 0.00
5:53 pm 17:53 Mostly Cloudy 46 7.8 40 4.4 79 79 WNW 5 7 29.97 1015 10 16 0.00 0.00
6:53 pm 18:53 Cloudy 48 8.9 41 5 77 77 W 5 7 29.98 1015 10 16 0.00 0.00
7:53 pm 19:53 Cloudy 46 7.8 40 4.4 79 79 NW 5 7 29.97 1015 10 16 0.00 0.00
8:53 pm 20:53 Mostly Cloudy 46 7.8 40 4.4 79 79 N 3 6 29.98 1015 10 16 0.00 0.00
9:53 pm 21:53 Mostly Cloudy 45 7.2 40 4.4 83 83 WNW 3 6 29.98 1015 10 16 0.00 0.00
10:53 pm 22:53 Mostly Clear 43 6.1 38 3.3 82 82 Calm 29.96 1015 9 14 0.00 0.00
11:53 pm 23:53 Mostly Clear with Mist and Fog 41 5 38 3.3 89 89 Calm 29.96 1015 6 10 0.00 0.00

Powered by AerisWeather